When you browse on this site, cookies collect data to enhance your experience and personalize the content and advertising you see.
Visit our Privacy Policy to learn more. By continuing to use the site, you agree to this use of cookies and data.
  • In United Kingdom
  • List of Countries
  • For 7 days
  • Water Temperature
  • Weather Map
  • Weather Widgets
  • user-avatar
    Login

    Hourly Weather Tacna

    Today, 16 October, Wednesday

    Time Temperature Precipitation Wind Pressure Humidity
    00:00 +15°C° 0 mm 0 mps 704 mmHg 80%
    01:00 +15°C° 0 mm 0 mps 704 mmHg 81%
    02:00 +15°C° 0 mm 0 mps 704 mmHg 81%
    03:00 +15°C° 0 mm 0 mps 704 mmHg 81%
    04:00 +15°C° 0 mm 0 mps 704 mmHg 81%
    05:00 +18°C° 0 mm 1 mps 704 mmHg 77%
    06:00 +19°C° 0 mm 1 mps 705 mmHg 73%
    07:00 +20°C° 0 mm 1 mps 705 mmHg 69%
    08:00 +20°C° 0 mm 2 mps 705 mmHg 64%
    09:00 +23°C° 0 mm 2 mps 705 mmHg 58%
    10:00 +24°C° 0 mm 3 mps 704 mmHg 53%
    11:00 +23°C° 0 mm 4 mps 704 mmHg 54%
    12:00 +23°C° 0 mm 4 mps 703 mmHg 54%
    13:00 +23°C° 0 mm 5 mps 703 mmHg 55%
    14:00 +22°C° 0 mm 4 mps 702 mmHg 58%
    15:00 +22°C° 0 mm 3 mps 702 mmHg 60%
    16:00 +21°C° 0 mm 3 mps 702 mmHg 63%
    17:00 +19°C° 0 mm 2 mps 703 mmHg 69%
    18:00 +19°C° 0 mm 1 mps 703 mmHg 75%
    19:00 +16°C° 0 mm 1 mps 704 mmHg 81%
    20:00 +16°C° 0 mm 1 mps 704 mmHg 81%
    21:00 +15°C° 0 mm 0 mps 704 mmHg 81%
    22:00 +15°C° 0 mm 0 mps 704 mmHg 80%
    23:00 +15°C° 0 mm 0 mps 704 mmHg 80%

    Tomorrow, 17 October, Thursday

    Time Temperature Precipitation Wind Pressure Humidity
    00:00 +16°C° 0 mm 1 mps 704 mmHg 81%
    01:00 +16°C° 0 mm 1 mps 704 mmHg 81%
    02:00 +16°C° 0 mm 1 mps 704 mmHg 80%
    03:00 +15°C° 0 mm 0 mps 704 mmHg 80%
    04:00 +15°C° 0 mm 0 mps 703 mmHg 79%
    05:00 +18°C° 0 mm 1 mps 704 mmHg 75%
    06:00 +19°C° 0 mm 1 mps 704 mmHg 72%
    07:00 +20°C° 0 mm 1 mps 704 mmHg 68%
    08:00 +20°C° 0 mm 2 mps 704 mmHg 64%
    09:00 +21°C° 0 mm 3 mps 704 mmHg 59%
    10:00 +23°C° 0 mm 4 mps 704 mmHg 54%
    11:00 +22°C° 0 mm 4 mps 703 mmHg 55%
    12:00 +22°C° 0 mm 4 mps 702 mmHg 55%
    13:00 +22°C° 0 mm 4 mps 702 mmHg 56%
    14:00 +21°C° 0 mm 4 mps 701 mmHg 60%
    15:00 +20°C° 0 mm 4 mps 701 mmHg 63%
    16:00 +20°C° 0 mm 3 mps 701 mmHg 66%
    17:00 +18°C° 0 mm 2 mps 701 mmHg 72%
    18:00 +17°C° 0 mm 2 mps 702 mmHg 77%
    19:00 +16°C° 0 mm 1 mps 703 mmHg 83%
    20:00 +16°C° 0 mm 1 mps 703 mmHg 82%
    21:00 +16°C° 0 mm 1 mps 704 mmHg 81%
    22:00 +16°C° 0 mm 1 mps 704 mmHg 80%
    23:00 +16°C° 0 mm 1 mps 704 mmHg 81%

    Day after tomorrow, 18 October, Friday

    Time Temperature Precipitation Wind Pressure Humidity
    00:00 +16°C° 0 mm 1 mps 703 mmHg 82%
    01:00 +16°C° 0 mm 1 mps 703 mmHg 83%
    02:00 +16°C° 0 mm 1 mps 703 mmHg 83%
    03:00 +16°C° 0 mm 1 mps 703 mmHg 83%
    04:00 +15°C° 0 mm 1 mps 703 mmHg 82%
    05:00 +16°C° 0 mm 1 mps 703 mmHg 78%
    06:00 +18°C° 0 mm 1 mps 704 mmHg 74%
    07:00 +19°C° 0 mm 1 mps 704 mmHg 69%
    08:00 +19°C° 0 mm 2 mps 704 mmHg 66%
    09:00 +20°C° 0 mm 2 mps 704 mmHg 62%
    10:00 +21°C° 0 mm 3 mps 704 mmHg 59%
    11:00 +21°C° 0 mm 3 mps 703 mmHg 58%
    12:00 +22°C° 0 mm 4 mps 703 mmHg 58%
    13:00 +22°C° 0 mm 4 mps 702 mmHg 57%
    14:00 +21°C° 0 mm 4 mps 702 mmHg 60%
    15:00 +20°C° 0 mm 3 mps 702 mmHg 64%
    16:00 +20°C° 0 mm 3 mps 702 mmHg 67%
    17:00 +19°C° 0 mm 2 mps 703 mmHg 71%
    18:00 +18°C° 0 mm 2 mps 703 mmHg 74%
    19:00 +18°C° 0 mm 1 mps 704 mmHg 78%
    20:00 +18°C° 0 mm 1 mps 704 mmHg 79%
    21:00 +18°C° 0 mm 1 mps 705 mmHg 79%
    22:00 +18°C° 0 mm 1 mps 705 mmHg 80%
    23:00 +18°C° 0 mm 1 mps 705 mmHg 80%

    19 October, Saturday

    Time Temperature Precipitation Wind Pressure Humidity
    00:00 +18°C° 0 mm 1 mps 704 mmHg 80%
    01:00 +18°C° 0 mm 1 mps 703 mmHg 79%
    02:00 +16°C° 0 mm 1 mps 703 mmHg 79%
    03:00 +16°C° 0 mm 1 mps 703 mmHg 79%
    04:00 +16°C° 0 mm 1 mps 703 mmHg 79%
    05:00 +18°C° 0 mm 1 mps 704 mmHg 77%
    06:00 +18°C° 0 mm 1 mps 704 mmHg 74%
    07:00 +19°C° 0 mm 1 mps 705 mmHg 72%
    08:00 +19°C° 0 mm 2 mps 705 mmHg 66%
    09:00 +21°C° 0 mm 2 mps 705 mmHg 60%
    10:00 +22°C° 0 mm 3 mps 705 mmHg 54%
    11:00 +22°C° 0 mm 3 mps 705 mmHg 56%
    12:00 +22°C° 0 mm 4 mps 704 mmHg 58%
    13:00 +21°C° 0 mm 4 mps 704 mmHg 60%
    14:00 +20°C° 0 mm 4 mps 704 mmHg 64%
    15:00 +20°C° 0 mm 3 mps 703 mmHg 68%
    16:00 +19°C° 0 mm 3 mps 703 mmHg 72%
    17:00 +18°C° 0 mm 2 mps 704 mmHg 76%
    18:00 +18°C° 0 mm 1 mps 705 mmHg 80%
    19:00 +16°C° 0 mm 1 mps 705 mmHg 83%
    20:00 +16°C° 0 mm 1 mps 705 mmHg 83%
    21:00 +16°C° 0 mm 1 mps 706 mmHg 82%
    22:00 +16°C° 0 mm 1 mps 706 mmHg 82%
    23:00 +16°C° 0 mm 1 mps 705 mmHg 81%

    20 October, Sunday

    Time Temperature Precipitation Wind Pressure Humidity
    00:00 +16°C° 0 mm 1 mps 705 mmHg 81%
    01:00 +16°C° 0 mm 1 mps 705 mmHg 80%
    02:00 +16°C° 0 mm 1 mps 704 mmHg 80%
    03:00 +15°C° 0 mm 1 mps 704 mmHg 81%
    04:00 +15°C° 0 mm 1 mps 704 mmHg 81%
    05:00 +16°C° 0 mm 1 mps 705 mmHg 78%
    06:00 +18°C° 0 mm 1 mps 705 mmHg 74%
    07:00 +18°C° 0 mm 1 mps 705 mmHg 71%
    08:00 +19°C° 0 mm 2 mps 705 mmHg 66%
    09:00 +20°C° 0 mm 3 mps 705 mmHg 61%
    10:00 +21°C° 0 mm 3 mps 705 mmHg 57%
    11:00 +21°C° 0 mm 4 mps 704 mmHg 56%
    12:00 +22°C° 0 mm 4 mps 704 mmHg 55%
    13:00 +22°C° 0 mm 5 mps 703 mmHg 55%
    14:00 +21°C° 0 mm 4 mps 703 mmHg 58%
    15:00 +21°C° 0 mm 4 mps 703 mmHg 61%
    16:00 +20°C° 0 mm 3 mps 702 mmHg 64%
    17:00 +19°C° 0 mm 2 mps 703 mmHg 69%
    18:00 +17°C° 0 mm 2 mps 703 mmHg 74%
    19:00 +16°C° 0 mm 1 mps 704 mmHg 79%
    20:00 +16°C° 0 mm 1 mps 704 mmHg 79%
    21:00 +16°C° 0 mm 1 mps 704 mmHg 78%
    22:00 +16°C° 0 mm 1 mps 705 mmHg 78%
    23:00 +16°C° 0 mm 1 mps 704 mmHg 77%

    21 October, Monday

    Time Temperature Precipitation Wind Pressure Humidity
    00:00 +15°C° 0 mm 1 mps 704 mmHg 77%
    01:00 +15°C° 0 mm 1 mps 704 mmHg 76%
    02:00 +15°C° 0 mm 1 mps 703 mmHg 77%
    03:00 +14°C° 0 mm 0 mps 703 mmHg 77%
    04:00 +14°C° 0 mm 0 mps 703 mmHg 77%
    05:00 +16°C° 0 mm 1 mps 703 mmHg 72%
    06:00 +18°C° 0 mm 1 mps 704 mmHg 67%
    07:00 +19°C° 0 mm 1 mps 704 mmHg 62%
    08:00 +20°C° 0 mm 2 mps 704 mmHg 58%
    09:00 +21°C° 0 mm 3 mps 704 mmHg 53%
    10:00 +22°C° 0 mm 3 mps 704 mmHg 49%
    11:00 +23°C° 0 mm 4 mps 703 mmHg 50%
    12:00 +23°C° 0 mm 4 mps 702 mmHg 50%
    13:00 +23°C° 0 mm 5 mps 702 mmHg 51%
    14:00 +22°C° 0 mm 4 mps 701 mmHg 56%
    15:00 +21°C° 0 mm 4 mps 701 mmHg 60%
    16:00 +20°C° 0 mm 3 mps 701 mmHg 64%
    17:00 +18°C° 0 mm 2 mps 701 mmHg 70%
    18:00 +18°C° 0 mm 1 mps 702 mmHg 76%
    19:00 +14°C° 0 mm 0 mps 702 mmHg 82%
    20:00 +14°C° 0 mm 0 mps 703 mmHg 81%
    21:00 +14°C° 0 mm 0 mps 703 mmHg 81%
    22:00 +14°C° 0 mm 0 mps 704 mmHg 81%
    23:00 +14°C° 0 mm 0 mps 703 mmHg 79%
    Show more